Regional Weather Roundup
Issued by NWS

Home | Current Version | Previous Version | Text Only | Print | Product List | Glossary On
Versions: 1 2 3 4 5 6 7 8 9 10 11 12 13 14 15 16 17 18 19 20 21 22 23 24 25 26 27 28 29 30 31 32 33 34 35 36 37 38 39 40 41 42 43 44 45 46 47 48 49
000
ASUS42 KKEY 250010
RWRKEY

FLORIDA REGIONAL WEATHER ROUNDUP FOR THE FLORIDA KEYS
NATIONAL WEATHER SERVICE KEY WEST FLORIDA
800 PM EDT FRI APR 24 2015

...SOUTH FLORIDA AND THE KEYS...

CITY           SKY/WX    TMP DP  RH WIND       PRES   REMARKS
FORT MYERS     PTCLDY    83  70  64 W9        29.92S
SW REGIONAL AP PTCLDY    83  69  62 W5        29.93S
NAPLES         PTCLDY    82  74  76 NW9       29.94S
MIAMI          MOCLDY    80  75  84 E12       29.94R
WEST KENDALL   MOCLDY    82  73  74 SE8       29.94R
HOMESTEAD      PTCLDY    80  73  80 E2        29.93S
MARATHON       CLEAR     83  75  77 NW8       29.94R HX  90
BOCA CHICA NAS MOCLDY    82  74  76 NW8       29.94S
KEY WEST INTL  PTCLDY    83  76  79 NW8       29.94S HX  91

...INTERNATIONAL WEATHER...

CITY           SKY/WX    TMP DP  RH WIND       PRES   REMARKS
NASSAU BAHAMAS MOCLDY    81  75  83 N8        29.95R
CANCUN MEXICO  PTCLDY    82  77  83 SE13      29.91S HX  91
COZUMEL MEXICO PTCLDY    79  75  89 SE7       29.92S

ADJACENT COASTAL WATERS...

STATION/POSITION TIME  SKY/WX   TEMP    WIND        PRES    WAVE
                                AIR SEA DIR/SP/G            HT/PER
                 (UTC)          (F)     (DEG/KT/KT) (MB)    (FT/S)
PULASKI SHOAL LI 2300            82      10/  7/  7 1014.0S
SAND KEY         2350            82     350/  8/ 11 1014.0R
SOMBRERO KEY     0000            83     330/ 12/ 13 1014.6R
LONG KEY         0000            83 87  330/ 15/ 17 1014.5R
MOLASSES REEF    0000            82 81  100/  2/  3 1013.6R
FOWEY ROCKS      NOT AVBL

$$



USA.gov is the U.S. government's official web portal to all federal, state and local government web resources and services.